Flight Track Log - Related Links

Times and Time Zones

All times are in EDT time to prevent confusion due to time zone crossing. See the N798SR flight status page for this flight to view local times or setup timezone preferences in your user account.

Time Position Orientation Groundspeed Altitude Reporting Facility
EDT Latitude Longitude Course Direction KTS MPH feet Rate Location/Type
12:15 24.7906 -81.7814 358° North 171 197 2,800  Level Miami Center
12:16 24.8364 -81.7833 358° North 171 197 3,400 300 Climbing Miami Center
12:17 24.8844 -81.7831 360° North 171 197 3,400  Level Miami Center
12:18 24.9347 -81.7828 360° North 171 197 3,400 50 Level Miami Center
12:19 24.9847 -81.7825 360° North 171 197 3,500 50 Climbing Miami Center
12:20 25.0328 -81.7819 North 176 203 3,500  Level Miami Center
12:21 25.0831 -81.7817 360° North 176 203 3,500  Level Miami Center
12:22 25.1331 -81.7814 360° North 176 203 3,500  Level Miami Center
12:23 25.1833 -81.7811 360° North 176 203 3,500  Level Miami Center
12:24 25.2353 -81.7808 360° North 176 203 3,500  Level Miami Center
12:25 25.2856 -81.7808 360° North 176 203 3,500  Level Miami Center
12:26 25.3356 -81.7806 360° North 176 203 3,500  Level Miami Center
12:27 25.3858 -81.7803 360° North 176 203 3,500  Level Miami Center
12:28 25.4381 -81.7800 360° North 176 203 3,500  Level Miami Center
12:29 25.4922 -81.7800 360° North 176 203 3,500  Level Miami Center
12:30 25.5403 -81.7772 North 181 208 3,500  Level Miami Center
12:31 25.5883 -81.7814 356° North 174 200 3,500  Level Miami Center
12:32 25.6406 -81.7792 North 174 200 3,500  Level Miami Center
12:33 25.6969 -81.7792 360° North 179 206 3,500  Level Miami Center
12:34 25.7492 -81.7789 360° North 179 206 3,500 -202 Level Miami Center
12:35 25.8014 -81.7764 North 179 206 3,100 -454 Descending Miami Center
12:36 25.8517 -81.7761 360° North 179 206 2,600 -550 Descending Miami Center
12:37 25.8994 -81.7781 358° North 179 206 2,000 -550 Descending Miami Center
12:38 25.9431 -81.7892 347° North 169 194 1,500 -250 Descending Miami Center
12:39 25.9844 -81.8000 347° North 161 185 1,500  Level Miami Center
12:40 26.0172 -81.8131 340° North 139 160 1,500  Level Miami Center
12:41 26.0506 -81.8167 354° North 128 147 1,500 -150 Level Miami Center
12:42 26.0844 -81.8067 15° North 122 140 1,200 -300 Descending Miami Center
12:44 26.0977 -81.7457 340° North  Level FlightAware Approximate
12:51 26.1500 -81.7667 340° North  Level FlightAware Approximate
12:52 26.1524 -81.7756 90° East  Level Estimated
12:53 26.1524 -81.7756 340° North  Level Estimated
12:54 26.1524 -81.7756 107° East  Level Estimated
12:55 26.1524 -81.7756 340° North  Level Estimated
12:56 26.1524 -81.7756 107° East  Level Estimated

Login

Don't have an account? Register now (free) for customized features, flight alerts, and more!